Regional Weather Roundup
Issued by NWS Grand Forks, ND

Home | Current Version | Previous Version | Graphics & Text | Print | Product List | Glossary On
Versions: 1 2 3 4 5 6 7 8 9 10 11 12 13 14 15 16 17 18 19 20 21 22 23 24 25 26 27 28 29 30 31 32 33 34 35 36 37 38 39 40 41 42 43 44 45 46 47 48 49 50
000
ASUS43 KFGF 242110
RWRFGF
PRAIRIE TO PINES  WEATHER ROUNDUP
NATIONAL WEATHER SERVICE EASTERN NORTH DAKOTA/GRAND FORKS ND
400 PM CDT MON JUL 24 2017

 **SATELLITE DATA USED TO AUGMENT SKY COVER AT AUTOMATED STATIONS**
 *****  WEATHER ACROSS EASTERN NORTH DAKOTA  *****

CITY           SKY/WX    TMP DP  RH WIND       PRES   REMARKS
GRAND FORKS    PTSUNNY   83  65  54 S22G28    29.89S
GRAND FRKS AFB FAIR      80  64  57 S20G25    29.89F
DEVILS LAKE    FAIR      82  64  54 S20       29.85F
FARGO          FAIR      79  63  57 S16G25    29.91F
WAHPETON ARPT  FAIR      73  61  64 SE12      29.94F
$$

 ***** WEATHER ACROSS CENTRAL AND WESTERN NORTH DAKOTA  *****

CITY           SKY/WX    TMP DP  RH WIND       PRES   REMARKS
BISMARCK       FAIR      90  64  42 S15       29.82S HX  91
MINOT          FAIR      97  55  24 S20G26    29.73F HX  95
JAMESTOWN      FAIR      79  63  57 S14       29.88R
MINOT AFB      FAIR      95  56  26 S16G25    29.71F HX  94
GARRISON         N/A     92  62  36 S17       29.75F HX  92
WILLISTON      FAIR      95  52  23 NW20G25   29.76R HX  92
DICKINSON      FAIR      96  55  25 S12G18    29.77F HX  94
HETTINGER      FAIR      94  56  27 S8        29.82F HX  92
$$

 *****  OTHER AIRPORT OBSERVATIONS IN OUR AREA  *****

CITY           SKY/WX    TMP DP  RH WIND       PRES   REMARKS
WALHALLA       NOT AVBL
GRAFTON AIRPOR FAIR      79  64  61 S21G28    29.89S
VALLEY CITY AR FAIR      79  64  61 SE17G25   29.90S
CANDO          NOT AVBL
CAVALIER APRT  FAIR      79  66  65 S21       29.84F
GWINNER        PTCLDY    73  66  78 SE15      29.87F
SHEYENNE NWR     N/A     76  64  66 SE14      29.95S
ROLLA            N/A     79  66  65 S16G25    29.82S
 ***** THE ABOVE OBSERVATIONS ARE NON NWS ARE NOT QUALITY
       CONTROLLED AND MAY MIS-REPORT RAIN FOR SNOW...
$$

  *****  WEATHER ACROSS NORTHERN MINNESOTA  *****

CITY           SKY/WX    TMP DP  RH WIND       PRES   REMARKS
FLAG ISLAND    FAIR      75  63  64 S14       29.92F
WARROAD        FAIR      81  64  57 S9        29.93S
ROSEAU         FAIR      81  64  57 S16       29.92S
HALLOCK        FAIR      81  64  57 S17G26    29.87F
THF RVR FALLS  FAIR      77  63  61 S16       29.95S
BAUDETTE       FAIR      80  57  45 S12       29.94F
WASKISH        PTSUNNY   79  57  47 SE9       29.97S
CROOKSTON      FAIR      77  63  61 S17       29.92S
STEPHEN NDAWN    N/A     79  63  57 S15         N/A
GREENBUSH NDAW   N/A     81  64  57 S12         N/A
$$
  *****  WEATHER ACROSS CENTRAL AND WEST MINNESOTA  *****

CITY           SKY/WX    TMP DP  RH WIND       PRES   REMARKS
FOSSTON        FAIR      75  61  60 S12       29.97R
BEMIDJI        FAIR      77  60  54 SE14      29.99S
PARK RAPIDS    FAIR      78  58  49 S14       29.99F
ELBOW LAKE     FAIR      75  64  68 SE10      29.99F
WADENA         FAIR      75  61  60 SE12      30.00S
DETROIT LAKES  FAIR      75  61  60 SE14G21   29.98F
MOORHEAD       FAIR      77  63  61 SE12      29.93F
FERGUS FALLS   FAIR      75  63  64 S14       29.95F
MORRIS MN      FAIR      81  63  54 SE12      29.97F
STAPLES        FAIR      73  57  56 S9        30.01F
$$
  *****  WEATHER ELSEWHERE ACROSS MINNESOTA  *****

CITY           SKY/WX    TMP DP  RH WIND       PRES   REMARKS
DULUTH         FAIR      72  55  55 S9        30.05F
INTRNTL FALLS  FAIR      78  54  43 SE8       29.98F
ELY            FAIR      75  46  35 SW10      30.04S
CLOQUET        FAIR      75  48  38 SE7       30.04F
WHEATON        FAIR      75  63  64 SE15      29.95F
BRAINERD       PTSUNNY   73  61  65 E6        30.02S
HIBBING        FAIR      75  52  44 VRB7      30.03F
ALEXANDRIA     FAIR      75  60  59 SE10      30.02R
SAINT CLOUD    FAIR      76  61  59 SE7       30.02S
MINNEAPOLIS    PTSUNNY   77  59  53 SE10      30.03S
$$

  *****  WEATHER ACROSS SOUTH DAKOTA  *****

CITY           SKY/WX    TMP DP  RH WIND       PRES   REMARKS
SIOUX FALLS    FAIR      83  65  54 SE17G25   29.94F
BROOKINGS      FAIR      78  63  59 SE16      29.95F
WATERTOWN      FAIR      78  64  61 SE13G20   29.95S
HURON          FAIR      84  65  52 SE17G29   29.88R
SISSETON         N/A     81  64  56 SE15      29.92F
ABERDEEN       TSTM      73  67  81 E9        29.88R
MITCHELL       FAIR      88  65  46 SE23G31   29.87F HX  90
PIERRE         FAIR      97  61  30 E23       29.73F HX  97
MOBRIDGE       FAIR      85  68  56 E17G26    29.80F
RAPID CITY     FAIR      97  50  20 NE10      29.83F HX  94
$$

  *****  SOME WEATHER IN NEARBY STATES *****

CITY           SKY/WX    TMP DP  RH WIND       PRES   REMARKS
GLASGOW MT     FAIR      84  44  24 W15       29.85F
GREAT FALLS MT FAIR      81  45  28 E9        29.89F
CHEYENNE WY    FAIR      90  30  11 CALM      30.09F
SCOTTSBLUFF NE FAIR     100  37  11 VRB7      29.91F HX  95
OMAHA NE       FAIR      86  64  47 SE13      29.97F
DES MOINES IA  PTSUNNY   83  61  47 SE6       30.00S
DAVENPORT IA   CLOUDY    73  63  70 NE7       30.07S
CHICAGO IL     FAIR      73  57  57 N12       30.05S
EAU CLAIRE WI  FAIR      75  57  53 SE10      30.06S
LA CROSSE WI   FAIR      76  59  55 CALM      30.06S
$$

  *****  SOME NATIONAL WEATHER *****

CITY           SKY/WX    TMP DP  RH WIND       PRES   REMARKS
LA GUARDIA NY  CLOUDY    68  60  75 NE10      29.85S
RALEIGH NC     FAIR      92  70  48 VRB6      29.89F HX  97
ATLANTA GA     PTSUNNY   79  73  82 W8        29.97F
NEW ORLEANS LA CLOUDY    78  73  84 CALM      30.02F
OKLAHOMA CITY  FAIR      93  66  40 VRB6G18   29.96F HX  96
ALBUQUERQUE NM PTSUNNY   85  56  37 S9        30.12F
SALT LAKE CITY FAIR      95  44  17 VRB5      29.96F HX  91
LOS ANGELES CA PTSUNNY   75  65  70 W13       29.91F
BOISE ID       FAIR      93  46  19 NW6       29.88F
SEATTLE WA     FAIR      76  53  44 N12       30.01F
$$

*** WEATHER ACROSS MANITOBA...SASKATCHEWAN AND ONTARIO ***
                ***ONTARIO***

CITY           SKY/WX    TMP DP  RH WIND       PRES   REMARKS
GERALDTON      PTSUNNY   79  52  38 CALM      29.99S
THUNDER BAY    MOSUNNY   79  55  44 S12       30.01S
SIOUX LOOKOUT  PTSUNNY   77  57  50 SW10      29.97S
TORONTO        CLOUDY    66  59  77 N14G24    29.84R
BIG TROUT LK   MOSUNNY   81  57  44 SW8       29.83F
PICKLE LAKE    PTSUNNY   81  52  36 SW13G20   29.93F
DRYDEN         SUNNY     77  55  47 S13G20    29.98S
KENORA         MOSUNNY   77  59  53 S15G22    29.94F
$$
                *** MANITOBA***

CITY           SKY/WX    TMP DP  RH WIND       PRES   REMARKS
BRANDON        PTSUNNY   86  68  54 SW13G23   29.73F
DAUPHIN        SUNNY     81  66  61 SW9G17    29.64F
ISLAND LAKE    LGT RAIN  75  61  60 S13G21    29.76F
PILOT MOUND      N/A     79  66  65 S21G30      N/A
THE PAS        PTSUNNY   81  66  61 S7        29.51S
THOMPSON       LGT RAIN  70  63  78 S3        29.68R
WINNIPEG       PTSUNNY   79  66  65 S23G32    29.79F
LYNN LAKE      LGT RAIN  64  63  94 E12       29.65F
CHURCHILL      PTSUNNY   57  46  67 E14       29.84F
GILLAM         CLOUDY    73  61  64 E7        29.74R
$$
                ***SASKATCHEWAN***

CITY           SKY/WX    TMP DP  RH WIND       PRES   REMARKS
ESTEVAN        PTSUNNY   82  61  47 NW17      29.78S
KINDERSLEY     PTSUNNY   70  39  32 W22G31    29.79S
LLOYDMINSTER   LGT RAIN  54  54 100 W25G37    29.54F
PRINCE ALBERT  MOSUNNY   70  50  49 W18       29.65S
REGINA         MOSUNNY   77  45  31 W18G24    29.81R
YORKTON        SUNNY     77  61  57 W16G23    29.71R
N. BATTLEFORD  PTSUNNY   64  46  52 SW26G33   29.70F
LA RONGE       PTSUNNY   68  63  83 NE8       29.52R
SASKATOON      MOSUNNY   70  45  40 SW21G31   29.74R
SWIFT CURRENT  SUNNY     73  37  27 W21G29    29.86F
$$
NOTE: THESE ARE AUTOMATED STATIONS WITH LIMITED QUALITY CONTROL
      "FAIR" INDICATES FEW OR NO CLOUDS BELOW 12,000 FEET WITH NO
      SIGNIFICANT WEATHER AND/OR OBSTRUCTIONS TO VISIBILITY.
      SKY/WX - SKY CONDITION AND SIGNIFICANT WEATHER.
      TMP - AIR TEMPERATURE.    DP   - DEWPOINT TEMPERATURE.
      RH  - RELATIVE HUMIDITY.  PRES - PRESSURE.
      HX  - HEAT INDEX.         WCI  - WIND CHILL INDEX.
$




USA.gov is the U.S. government's official web portal to all federal, state and local government web resources and services.